Home > Weather > Vernier > Past weeks

Flag for Switzerland Weather for the Past 2 Weeks in Vernier, Geneva, Switzerland

Now
45 °F

Clear.


Feels Like: 45 °F
Forecast: 40 / 59 °F
Wind: 2 mph from North

Location: Geneva Cointrin Airport

Current Time: May 3, 2016 at 3:39:28 AM

Latest Report: May 3, 2016 at 1:50 AM


Visibility: 10 mi

Pressure: 30.15 "Hg

Humidity: 87%

Dew Point: 41 °F

Location of VernierLocation

Historic Weather in Vernier — Graph

°F

Vernier Temperature Yesterday

Maximum temperature yesterday: 61 °F (at 2:50 PM)
Minimum temperature yesterday: 43 °F (at 12:20 AM)
Average temperature yesterday: 52 °F

High & Low Weather Summary for the Past Weeks

 TemperatureHumidityPressure
High68 °F (Apr 21, 3:50 PM)94% (Apr 22, 10:50 PM)30.30 "Hg (Apr 22, 10:50 PM)
Low32 °F (Apr 28, 2:50 AM)26% (Apr 28, 3:20 PM)29.74 "Hg (Apr 26, 6:20 PM)
Average49 °F66%30.03 "Hg
* Reported Apr 18 1:20 AM — May 3 1:50 AM, Vernier, Weather by CustomWeather, © 2016

Note: Actual official high and low records may vary slightly from our data, if they occured in-between our weather recording intervals... More about our weather records

Advertising

Vernier Weather History for the Previous 24 Hours

Scroll right to see more
 ConditionsComfort  
Time TempWeatherWind HumidityBarometerVisibility
1:50 AM
Tue, May 3
45 °FClear.2 mph87%30.15 "Hg10 mi
1:20 AM46 °FClear.5 mph87%30.15 "Hg10 mi
12:50 AM46 °FClear.2 mph82%30.15 "Hg10 mi
12:20 AM46 °FPassing clouds.1 mph87%30.15 "HgN/A
11:50 PM
Mon, May 2
46 °FPassing clouds.1 mph87%30.15 "HgN/A
11:20 PM48 °FPassing clouds.1 mph82%30.15 "HgN/A
10:50 PM50 °FPassing clouds.1 mph76%30.15 "HgN/A
10:20 PM50 °FPassing clouds.2 mph76%30.15 "HgN/A
9:50 PM52 °FPassing clouds.2 mph72%30.12 "HgN/A
9:20 PM54 °FScattered clouds.5 mph67%30.12 "HgN/A
8:50 PM54 °FScattered clouds.2 mph67%30.12 "HgN/A
8:20 PM57 °FScattered clouds.5 mph55%30.12 "HgN/A
7:50 PM59 °FPassing clouds.9 mph48%30.12 "HgN/A
7:20 PM59 °FPassing clouds.12 mph48%30.12 "HgN/A
6:50 PM59 °FScattered clouds.13 mph51%30.12 "HgN/A
6:20 PM61 °FScattered clouds.16 mph48%30.09 "HgN/A
5:50 PM59 °FScattered clouds.16 mph51%30.09 "HgN/A
5:20 PM61 °FPassing clouds.20 mph48%30.09 "HgN/A
4:50 PM61 °FPassing clouds.21 mph48%30.12 "HgN/A
4:20 PM61 °FPassing clouds.18 mph52%30.09 "HgN/A
3:50 PM61 °FPassing clouds.21 mph52%30.09 "HgN/A
3:20 PM61 °FPassing clouds.18 mph55%30.09 "HgN/A
2:50 PM61 °FPassing clouds.18 mph55%30.09 "HgN/A
2:20 PM59 °FPassing clouds.18 mph59%30.09 "HgN/A
1:50 PM59 °FPassing clouds.16 mph59%30.09 "HgN/A
1:20 PM57 °FPassing clouds.16 mph63%30.12 "HgN/A
12:50 PM55 °FPassing clouds.17 mph67%30.12 "HgN/A
12:20 PM55 °FPassing clouds.18 mph72%30.12 "HgN/A
11:50 AM55 °FPassing clouds.20 mph67%30.12 "HgN/A
11:20 AM54 °FPassing clouds.17 mph72%30.12 "HgN/A
10:50 AM52 °FPassing clouds.13 mph77%30.12 "HgN/A
10:20 AM50 °FPartly sunny.14 mph76%30.15 "HgN/A
9:50 AM48 °FPartly sunny.13 mph82%30.15 "HgN/A
9:20 AM48 °FPartly sunny.13 mph82%30.15 "HgN/A
8:20 AM46 °FPartly sunny.10 mph87%30.15 "HgN/A
7:20 AM46 °FPartly sunny.9 mph87%30.15 "HgN/A
6:50 AM45 °FPartly cloudy.7 mph93%30.15 "HgN/A
6:20 AM45 °FPassing clouds.5 mph87%30.15 "HgN/A
5:20 AM45 °FPassing clouds.5 mph87%30.15 "HgN/A
4:50 AM45 °FPassing clouds.3 mph87%30.15 "HgN/A
4:20 AM45 °FPassing clouds.2 mph87%30.15 "HgN/A
3:50 AM43 °FPartly cloudy.1 mph93%30.15 "Hg4 mi
Weather by CustomWeather, © 2016

See weather overviewHow to use our weather pages